VA2EYZ-13 Weather Reports


time (UTC)temp
F
wind
direction
speed
knots
gust
knots
rain 1hr
in
rain 24hr
in
rain mn
in
humidity
%
barometer
mb
20260505113653 54 0.0 0.0 0.00 0.00 0.00 30 1002.0
20260505110248 53 0.0 0.0 0.00 0.00 0.00 30 1001.0
20260505101744 53 0.0 0.0 0.00 0.00 0.00 30 1001.0
20260505095930 53 0.0 0.0 0.00 0.00 0.00 30 1001.1
20260505093704 53 0.0 0.0 0.00 0.00 0.00 30 1001.0
20260505090402 53 0.0 0.0 0.00 0.00 0.00 30 1001.7
20260505080402 53 0.0 0.0 0.00 0.00 0.00 30 1001.0
20260505072442 53 0.0 0.0 0.00 0.00 0.00 30 1001.0
20260505070940 53 0.0 0.0 0.00 0.00 0.00 30 1001.9
20260505070402 53 0.0 0.0 0.00 0.00 0.00 30 1002.0
20260505061301 54 0.0 0.0 0.00 0.00 0.00 29 1002.0
20260505060402 54 0.0 0.0 0.00 0.00 0.00 29 1001.0
20260505055801 54 0.0 0.0 0.00 0.00 0.00 30 1001.0
20260505052830 54 0.0 0.0 0.00 0.00 0.00 30 1002.0
20260505051350 54 0.0 0.0 0.00 0.00 0.00 30 1002.4
20260505040354 54 0.0 0.0 0.00 0.00 0.00 30 1003.0
20260505031908 54 0.0 0.0 0.00 0.00 0.00 32 1003.0
20260505030354 54 0.0 0.0 0.00 0.00 0.00 32 1003.0
20260505024313 54 0.0 0.0 0.00 0.00 0.00 32 1003.0
20260505021846 54 0.0 0.0 0.00 0.00 0.00 32 1003.2
20260505020354 54 0.0 0.0 0.00 0.00 0.00 32 1003.3
20260505011925 54 0.0 0.0 0.00 0.00 0.00 32 1003.3
20260505010354 54 0.0 0.0 0.00 0.00 0.00 32 1003.0
20260505005317 55 0.0 0.0 0.00 0.00 0.00 30 1003.0
20260505002114 55 0.0 0.0 0.00 0.00 0.00 30 1003.4
20260505000355 55 0.0 0.0 0.00 0.00 0.00 30 1003.0
20260504232908 56 0.0 0.0 0.00 0.00 0.00 29 1003.0
20260504232403 56 0.0 0.0 0.00 0.00 0.00 29 1003.3
20260504230354 56 0.0 0.0 0.00 0.00 0.00 29 1003.3
20260504222412 57 0.0 0.0 0.00 0.00 0.00 28 1003.3
20260504220911 57 0.0 0.0 0.00 0.00 0.00 28 1003.0
20260504220354 57 0.0 0.0 0.00 0.00 0.00 28 1003.2
20260504212712 58 0.0 0.0 0.00 0.00 0.00 28 1003.2
20260504210354 58 0.0 0.0 0.00 0.00 0.00 28 1003.0
20260504203919 57 0.0 0.0 0.00 0.00 0.00 28 1003.0
20260504202850 57 0.0 0.0 0.00 0.00 0.00 28 1003.4
20260504200354 57 0.0 0.0 0.00 0.00 0.00 28 1003.0
20260504195507 56 0.0 0.0 0.00 0.00 0.00 30 1003.0
20260504193533 56 0.0 0.0 0.00 0.00 0.00 30 1003.0
20260504190354 56 0.0 0.0 0.00 0.00 0.00 30 1004.0
20260504184255 54 0.0 0.0 0.00 0.00 0.00 34 1004.8
20260504181049 54 0.0 0.0 0.00 0.00 0.00 34 1004.0
20260504180354 54 0.0 0.0 0.00 0.00 0.00 34 1005.0
20260504173644 53 0.0 0.0 0.00 0.00 0.00 37 1005.0
20260504171036 53 0.0 0.0 0.00 0.00 0.00 37 1005.4
20260504170354 53 0.0 0.0 0.00 0.00 0.00 37 1005.0
20260504160354 52 0.0 0.0 0.00 0.00 0.00 40 1005.5
20260504150354 50 0.0 0.0 0.00 0.00 0.00 44 1005.4
20260504140356 50 0.0 0.0 0.00 0.00 0.00 44 1005.0
20260504130354 49 0.0 0.0 0.00 0.00 0.00 46 1004.0